Location: Chuathbaluk
(61.5726°N, 159.2454°W)
Time: 10:56:01
(UTC+00:00)

N. Korean satellite - Pass Details

Date: 30 October 2020
Orbit: 453 x 503 km, 97.2° (Epoch: 04 December)

Event Time Altitude Azimuth Distance (km) Brightness Sun altitude
Rises 03:45:39 0° 191° (S) 2,530 10.6 -8.1°
Reaches altitude 10° 03:47:54 10° 203° (SSW) 1,646 9.8 -8.4°
Maximum altitude 03:51:02 29° 265° (W) 893 8.9 -8.7°
Drops below altitude 10° 03:54:09 10° 328° (NNW) 1,634 9.5 -9.1°
Sets 03:56:23 0° 339° (NNW) 2,507 10.3 -9.4°
